Norman, OK

7:30 PM CDT on September 24, 2016 (GMT -0500)
Univ. Of Oklahoma Westheimer

Weather History for KOUN - May, 2012

Change the Weather History Date:

Thursday, May 3, 2012

  Actual Average Record
Temperature  
Mean Temperature 80 °F -  
Max Temperature 91 °F 77 °F 93 °F (1950)
Min Temperature 69 °F 51 °F 32 °F (2013)
Cooling Degree Days 15    
Growing Degree Days 30 (Base 50)    
Moisture  
Dew Point 67 °F    
Average Humidity 65    
Maximum Humidity 83    
Minimum Humidity 46    
Precipitation  
Precipitation 0.00 in - - ()
Sea Level Pressure  
Sea Level Pressure 29.85 in    
Wind  
Wind Speed 15 mph (South)    
Max Wind Speed 23 mph    
Max Gust Speed 30 mph    
Visibility 10 miles    
Events      
Averages and records for this station are not official NWS values.
T = Trace of Precipitation, MM = Missing Value Source: NWS Daily Summary

Daily Weather History Graph

Daily Weather History Graph

Search for Another Location

Airport or City:

Trip Planner

Search our weather history database for the weather conditions in past years. The results will help you decide how hot, cold, wet, or windy it might be!

Date:

Astronomy

May. 03, 2012 Rise Set
Actual Time 6:36 AM CDT 8:17 PM CDT
Civil Twilight 6:08 AM CDT 8:45 PM CDT
Nautical Twilight 5:35 AM CDT 9:18 PM CDT
Astronomical Twilight 5:00 AM CDT 9:53 PM CDT
Moon 5:48 PM CDT (5/3) 4:34 AM CDT (5/3)
Length of Visible Light 14h 36m
Length of Day
13h 41m
Waxing Gibbous, 91% of the Moon is Illuminated
May 3
Waxing Gibbous
May 5
Full
May 12
Last Quarter
May 20
New
May 28
First Quarter

Hourly Weather History & Observations

Time (CDT) Temp. Heat Index Dew Point Humidity Pressure Visibility Wind Dir Wind Speed Gust Speed Precip Events Conditions
12:15 AM 73.4 °F - 66.2 °F 78% 29.85 in 10.0 mi SSE 16.1 mph 21.9 mph N/A   Clear
12:35 AM 73.4 °F - 66.2 °F 78% 29.85 in 10.0 mi SSE 15.0 mph 19.6 mph N/A   Clear
12:55 AM 73.4 °F - 66.2 °F 78% 29.85 in 10.0 mi SSE 13.8 mph 20.7 mph N/A   Clear
1:15 AM 73.4 °F - 66.2 °F 78% 29.85 in 10.0 mi SSE 15.0 mph 20.7 mph N/A   Clear
1:35 AM 73.4 °F - 66.2 °F 78% 29.85 in 10.0 mi SSE 16.1 mph 20.7 mph N/A   Clear
1:55 AM 73.4 °F - 66.2 °F 78% 29.85 in 10.0 mi South 15.0 mph 19.6 mph N/A   Clear
2:15 AM 71.6 °F - 64.4 °F 78% 29.84 in 10.0 mi SSE 15.0 mph - N/A   Clear
2:35 AM 71.6 °F - 64.4 °F 78% 29.84 in 10.0 mi SSE 13.8 mph - N/A   Clear
2:55 AM 71.6 °F - 64.4 °F 78% 29.84 in 10.0 mi South 12.7 mph - N/A   Clear
3:15 AM 71.6 °F - 64.4 °F 78% 29.84 in 10.0 mi South 11.5 mph - N/A   Clear
3:35 AM 71.6 °F - 64.4 °F 78% 29.85 in 10.0 mi South 11.5 mph - N/A   Clear
3:55 AM 71.6 °F - 64.4 °F 78% 29.84 in 10.0 mi SSE 11.5 mph - N/A   Clear
4:15 AM 69.8 °F - 64.4 °F 83% 29.84 in 10.0 mi South 10.4 mph - N/A   Clear
4:35 AM 69.8 °F - 64.4 °F 83% 29.84 in 10.0 mi South 11.5 mph - N/A   Clear
4:55 AM 71.6 °F - 64.4 °F 78% 29.84 in 10.0 mi South 12.7 mph - N/A   Clear
5:15 AM 69.8 °F - 64.4 °F 83% 29.83 in 10.0 mi South 12.7 mph - N/A   Clear
5:35 AM 69.8 °F - 64.4 °F 83% 29.83 in 10.0 mi South 12.7 mph - N/A   Clear
5:55 AM 69.8 °F - 64.4 °F 83% 29.83 in 10.0 mi South 13.8 mph - N/A   Clear
6:15 AM 71.6 °F - 64.4 °F 78% 29.83 in 10.0 mi South 11.5 mph 17.3 mph N/A   Clear
6:35 AM 71.6 °F - 64.4 °F 78% 29.84 in 10.0 mi South 15.0 mph - N/A   Clear
6:55 AM 69.8 °F - 64.4 °F 83% 29.84 in 10.0 mi South 13.8 mph - N/A   Clear
7:15 AM 71.6 °F - 64.4 °F 78% 29.85 in 10.0 mi South 11.5 mph 16.1 mph N/A   Clear
7:35 AM 71.6 °F - 64.4 °F 78% 29.85 in 10.0 mi South 16.1 mph 19.6 mph N/A   Clear
7:55 AM 73.4 °F - 64.4 °F 73% 29.86 in 10.0 mi South 16.1 mph - N/A   Clear
8:15 AM 73.4 °F - 64.4 °F 73% 29.87 in 10.0 mi South 16.1 mph 21.9 mph N/A   Clear
8:35 AM 75.2 °F - 66.2 °F 73% 29.87 in 10.0 mi South 20.7 mph 25.3 mph N/A   Clear
8:55 AM 77.0 °F - 66.2 °F 69% 29.87 in 10.0 mi South 19.6 mph 25.3 mph N/A   Clear
9:15 AM 77.0 °F - 66.2 °F 69% 29.87 in 10.0 mi South 19.6 mph 25.3 mph N/A   Clear
9:35 AM 78.8 °F - 68.0 °F 69% 29.87 in 10.0 mi South 17.3 mph 25.3 mph N/A   Clear
9:55 AM 80.6 °F 83.2 °F 68.0 °F 65% 29.87 in 10.0 mi South 21.9 mph 27.6 mph N/A   Clear
10:15 AM 80.6 °F 83.2 °F 68.0 °F 65% 29.87 in 10.0 mi South 19.6 mph 29.9 mph N/A   Clear
10:35 AM 82.4 °F 85.4 °F 68.0 °F 62% 29.87 in 10.0 mi SSW 21.9 mph 25.3 mph N/A   Clear
10:55 AM 82.4 °F 85.4 °F 68.0 °F 62% 29.87 in 10.0 mi SSW 19.6 mph 25.3 mph N/A   Clear
11:35 AM 86.0 °F 89.4 °F 68.0 °F 55% 29.87 in 10.0 mi SSW 18.4 mph 26.5 mph N/A   Clear
11:55 AM 86.0 °F 90.4 °F 69.8 °F 58% 29.87 in 10.0 mi SSW 19.6 mph 23.0 mph N/A   Clear
12:15 PM 87.8 °F 92.6 °F 69.8 °F 55% 29.87 in 10.0 mi South 23.0 mph 26.5 mph N/A   Clear
12:35 PM 86.0 °F 89.4 °F 68.0 °F 55% 29.86 in 10.0 mi South 21.9 mph 27.6 mph N/A   Clear
12:55 PM 87.8 °F 92.6 °F 69.8 °F 55% 29.86 in 10.0 mi SSW 17.3 mph 26.5 mph N/A   Clear
1:15 PM 87.8 °F 92.6 °F 69.8 °F 55% 29.86 in 10.0 mi South 16.1 mph 23.0 mph N/A   Clear
1:35 PM 87.8 °F 92.6 °F 69.8 °F 55% 29.86 in 10.0 mi South 16.1 mph 20.7 mph N/A   Clear
1:55 PM 87.8 °F 92.6 °F 69.8 °F 55% 29.86 in 10.0 mi SSW 19.6 mph 24.2 mph N/A   Clear
2:15 PM 89.6 °F 94.7 °F 69.8 °F 52% 29.86 in 10.0 mi SSW 18.4 mph 25.3 mph N/A   Clear
2:35 PM 89.6 °F 94.7 °F 69.8 °F 52% 29.85 in 10.0 mi SSW 17.3 mph 21.9 mph N/A   Clear
2:55 PM 91.4 °F 95.4 °F 68.0 °F 46% 29.85 in 10.0 mi SSW 18.4 mph 24.2 mph N/A   Clear
3:15 PM 91.4 °F 95.4 °F 68.0 °F 46% 29.85 in 10.0 mi South 16.1 mph 20.7 mph N/A   Clear
3:35 PM 91.4 °F 95.4 °F 68.0 °F 46% 29.84 in 10.0 mi South 15.0 mph 24.2 mph N/A   Clear
3:55 PM 91.4 °F 96.8 °F 69.8 °F 49% 29.84 in 10.0 mi South 13.8 mph 21.9 mph N/A   Clear
4:15 PM 91.4 °F 96.8 °F 69.8 °F 49% 29.83 in 10.0 mi South 19.6 mph 25.3 mph N/A   Clear
4:35 PM 91.4 °F 95.4 °F 68.0 °F 46% 29.83 in 10.0 mi South 20.7 mph - N/A   Clear
4:55 PM 91.4 °F 95.4 °F 68.0 °F 46% 29.82 in 10.0 mi South 18.4 mph 24.2 mph N/A   Clear
5:15 PM 91.4 °F 95.4 °F 68.0 °F 46% 29.82 in 10.0 mi South 15.0 mph 26.5 mph N/A   Clear
5:35 PM 91.4 °F 95.4 °F 68.0 °F 46% 29.82 in 10.0 mi South 12.7 mph - N/A   Clear
5:55 PM 91.4 °F 96.8 °F 69.8 °F 49% 29.82 in 10.0 mi SSE 15.0 mph - N/A   Clear
6:15 PM 91.4 °F 96.8 °F 69.8 °F 49% 29.82 in 10.0 mi South 16.1 mph 24.2 mph N/A   Clear
6:35 PM 89.6 °F 94.7 °F 69.8 °F 52% 29.81 in 10.0 mi SSE 11.5 mph 23.0 mph N/A   Clear
6:55 PM 89.6 °F 94.7 °F 69.8 °F 52% 29.82 in 10.0 mi SSE 15.0 mph 20.7 mph N/A   Clear
7:15 PM 87.8 °F 91.4 °F 68.0 °F 52% 29.82 in 10.0 mi SSE 16.1 mph 23.0 mph N/A   Clear
7:35 PM 87.8 °F 91.4 °F 68.0 °F 52% 29.82 in 10.0 mi SSE 12.7 mph 20.7 mph N/A   Clear
7:55 PM 86.0 °F 90.4 °F 69.8 °F 58% 29.82 in 10.0 mi SE 15.0 mph - N/A   Clear
8:15 PM 86.0 °F 90.4 °F 69.8 °F 58% 29.83 in 10.0 mi SE 12.7 mph - N/A   Clear
8:35 PM 82.4 °F 86.3 °F 69.8 °F 66% 29.83 in 10.0 mi SSE 13.8 mph - N/A   Clear
8:55 PM 82.4 °F 85.4 °F 68.0 °F 62% 29.84 in 10.0 mi SSE 13.8 mph 19.6 mph N/A   Clear
9:15 PM 82.4 °F 85.4 °F 68.0 °F 62% 29.85 in 10.0 mi SSE 17.3 mph 21.9 mph N/A   Clear
9:35 PM 82.4 °F 85.4 °F 68.0 °F 62% 29.86 in 10.0 mi SSE 16.1 mph 21.9 mph N/A   Clear
9:55 PM 80.6 °F 83.2 °F 68.0 °F 65% 29.87 in 10.0 mi SSE 16.1 mph 24.2 mph N/A   Clear
10:15 PM 80.6 °F 83.2 °F 68.0 °F 65% 29.87 in 10.0 mi SSE 13.8 mph 20.7 mph N/A   Clear
10:35 PM 80.6 °F 83.2 °F 68.0 °F 65% 29.88 in 10.0 mi SSE 16.1 mph - N/A   Clear
10:55 PM 78.8 °F - 68.0 °F 69% 29.88 in 10.0 mi SSE 15.0 mph - N/A   Clear
11:15 PM 78.8 °F - 68.0 °F 69% 29.88 in 10.0 mi SSE 16.1 mph 20.7 mph N/A   Clear
11:35 PM 78.8 °F - 68.0 °F 69% 29.87 in 10.0 mi SSE 18.4 mph 24.2 mph N/A   Clear
11:55 PM 78.8 °F - 68.0 °F 69% 29.87 in 10.0 mi SSE 17.3 mph - N/A   Clear